Weather in Ciudad Real

Spain     38°58′51″N   3°55′33″W
temp.,
°C
wind,
m/s
gust,
m/s
humid.,
%
clouds,
%
prec.,
mm/h
press.,
hPa
HPBL,
m
25 february, thu
thu2501:00+7e23700 0.0 102931
04:00+7e347233 0.0 102846
07:00+6ene337767 0.0 102837
10:00+9ene346799 0.0 1028187
13:00+14e235189 0.0 1026541
16:00+16ne3348100 0.0 1024674
19:00+13nne3451100 0.0 102448
22:00+11ne2267100 0.0 102730
26 february, fri
fri2601:00+9ne3480100 0.0 102769
04:00+8ne3377100 0.0 102759
07:00+7ne3474100 0.0 102779
10:00+10ne3572100 0.0 1028275
13:00+14ene4653100 0.0 1026570
16:00+17e3441100 0.0 10241227
19:00+13ne4854100 0.0 1024142
22:00+10ene4661100 0.0 1026135
27 february, sat
sat2701:00+9ene4772100 0.0 1026156
04:00+7ne487097 0.0 1026171
07:00+5ene486991 0.0 1026196
10:00+8ene595981 0.0 1026384
13:00+13ene694490 0.0 1024764
16:00+15ene7941100 0.0 1022879
19:00+12ene61244100 0.0 1021310
22:00+9ene4853100 0.0 1023199
28 february, sun
sun2801:00+8ene4660100 0.0 1023129
04:00+6ene467549 0.0 1023131
07:00+4ene368425 0.0 1023111
10:00+8ene46760 0.0 1023319
13:00+14ene45510 0.0 1021679
16:00+17e34401 0.0 10181198
19:00+13e485721 0.0 1018159
22:00+10e4105781 0.0 1020278
1 march, mon
mon101:00+8ene496983 0.0 1021232
04:00+7ene4776100 0.1 1020198
07:00+7ne51076100 0.1 1020325
10:00+9ene71174100 0.0 1020462
13:00+15e575297 0.0 1019904
16:00+17se4544100 0.0 10171437
19:00+13ssw2265100 0.0 101923
22:00+10ene357196 0.1 1021107